Weather History for Pensacola, FL

Change the Weather History Date:

Friday, May 10, 2013

  Actual Average Record
Temperature  
Mean Temperature 72 °F 73 °F  
Max Temperature 78 °F 82 °F 90 °F (2009)
Min Temperature 66 °F 65 °F 52 °F (1966)
Cooling Degree Days 7 8  
Month to date cooling degree days 33 70  
Year to date cooling degree days 202 218  
Growing Degree Days 23 (Base 50)    
Moisture  
Dew Point 65 °F    
Average Humidity 76    
Maximum Humidity 87    
Minimum Humidity 64    
Precipitation  
Precipitation T in 0.13 in 4.94 in (1987)
Month to date precipitation 1.42 1.33  
Year to date precipitation 21.84 21.15  
Sea Level Pressure  
Sea Level Pressure 30.04 in    
Wind  
Wind Speed 8 mph (SSW)    
Max Wind Speed 23 mph    
Max Gust Speed 28 mph    
Visibility 10 miles    
Events      
T = Trace of Precipitation, MM = Missing Value Source: NWS Daily Summary

Daily Weather History Graph

Daily Weather History Graph

Search for Another Location

Airport:

Trip Planner

Search our weather history database for the weather conditions in past years. The results will help you decide how hot, cold, wet, or windy it might be!

Date:

Astronomy

May. 10, 2013 Rise Set
Actual Time 5:57 AM CDT 7:33 PM CDT
Civil Twilight 5:31 AM CDT 7:59 PM CDT
Nautical Twilight 5:00 AM CDT 8:30 PM CDT
Astronomical Twilight 4:27 AM CDT 9:03 PM CDT
Moon 6:22 AM CDT (5/10) 8:20 PM CDT (5/10)
Length of Visible Light 14h 27m
Length of Day
13h 35m
New Moon, 0% of the Moon is Illuminated
May 10
New Moon
May 17
First Quarter
May 24
Full
May 31
Last Quarter
Jun 8
New

Hourly Weather History & Observations

Time (CDT) Temp. Dew Point Humidity Pressure Visibility Wind Dir Wind Speed Gust Speed Precip Events Conditions
12:53 AM 69.8 °F 64.4 °F 83% 30.07 in 10.0 mi South 8.1 mph - N/A   Clear
1:53 AM 69.1 °F 64.0 °F 84% 30.04 in 10.0 mi SSE 6.9 mph - N/A   Clear
2:06 AM 69.8 °F 64.4 °F 83% 30.03 in 10.0 mi SSE 8.1 mph - N/A   Partly Cloudy
2:53 AM 69.1 °F 64.0 °F 84% 30.02 in 10.0 mi South 9.2 mph - N/A   Clear
3:53 AM 69.1 °F 64.9 °F 87% 30.01 in 10.0 mi SSE 6.9 mph - N/A   Clear
4:53 AM 69.1 °F 64.9 °F 87% 30.03 in 10.0 mi South 8.1 mph - N/A   Clear
5:53 AM 70.0 °F 64.9 °F 84% 30.02 in 10.0 mi SSE 8.1 mph - N/A   Clear
6:53 AM 71.6 °F 66.2 °F 83% 30.04 in 10.0 mi SSW 5.8 mph - N/A   Partly Cloudy
7:53 AM 72.0 °F 66.0 °F 81% 30.05 in 10.0 mi South 5.8 mph - N/A   Clear
8:53 AM 72.0 °F 66.0 °F 81% 30.09 in 10.0 mi South 5.8 mph - N/A   Overcast
9:53 AM 73.0 °F 66.9 °F 81% 30.13 in 10.0 mi SW 5.8 mph - N/A   Partly Cloudy
10:26 AM 73.4 °F 66.2 °F 78% 30.13 in 10.0 mi WSW 3.5 mph - 0.00 in   Mostly Cloudy
10:53 AM 75.0 °F 66.0 °F 73% 30.14 in 10.0 mi WNW 3.5 mph - 0.00 in   Mostly Cloudy
11:00 AM 75.2 °F 66.2 °F 73% 30.14 in 10.0 mi West 4.6 mph - N/A   Scattered Clouds
11:53 AM 75.0 °F 64.9 °F 71% 30.14 in 10.0 mi West 6.9 mph - N/A   Partly Cloudy
12:53 PM 75.0 °F 66.0 °F 73% 30.08 in 10.0 mi South 15.0 mph - N/A   Clear
1:53 PM 75.0 °F 66.0 °F 73% 29.99 in 10.0 mi South 20.7 mph 25.3 mph N/A   Clear
2:16 PM 73.4 °F 64.4 °F 73% 30.02 in 10.0 mi SSW 10.4 mph - N/A   Mostly Cloudy
2:53 PM 73.9 °F 64.9 °F 73% 30.02 in 10.0 mi SSW 8.1 mph - N/A   Overcast
3:13 PM 75.2 °F 64.4 °F 69% 29.99 in 10.0 mi South 8.1 mph - N/A   Scattered Clouds
3:53 PM 77.0 °F 64.0 °F 64% 29.99 in 10.0 mi South 10.4 mph 18.4 mph N/A   Clear
4:53 PM 75.9 °F 66.0 °F 71% 29.96 in 10.0 mi SSE 10.4 mph - N/A   Partly Cloudy
5:53 PM 73.9 °F 64.9 °F 73% 29.98 in 10.0 mi South 10.4 mph - N/A   Partly Cloudy
6:53 PM 72.0 °F 66.9 °F 84% 29.99 in 10.0 mi South 11.5 mph - N/A   Clear
7:53 PM 73.0 °F 63.0 °F 71% 30.06 in 10.0 mi SW 11.5 mph - 0.01 in   Scattered Clouds
8:53 PM 72.0 °F 64.0 °F 76% 30.05 in 10.0 mi WSW 8.1 mph - N/A   Scattered Clouds
9:00 PM 71.6 °F 64.4 °F 78% 30.04 in 10.0 mi WSW 15.0 mph 19.6 mph N/A   Mostly Cloudy
9:23 PM 71.6 °F 62.6 °F 73% 30.02 in 10.0 mi West 11.5 mph - N/A   Partly Cloudy
9:53 PM 71.1 °F 63.0 °F 75% 29.98 in 10.0 mi SE 3.5 mph - N/A   Scattered Clouds
10:53 PM 70.0 °F 64.0 °F 81% 29.98 in 10.0 mi South 5.8 mph - N/A   Clear
11:53 PM 68.0 °F 64.0 °F 87% 30.00 in 10.0 mi South 3.5 mph - N/A   Clear